Location: Tierra del Sol
(32.6128°N, 116.3319°W)
Time: 05:36:08
(UTC-07:00)

Vanguard 2 - Visible Passes

Search period start: 20 October 2017 00:00
Search period end: 30 October 2017 00:00
Orbit: 554 x 2939 km, 32.9° (Epoch: 19 October)

Date Brightness Start Highest point End Pass type
(mag) Time Alt. Az. Time Alt. Az. Time Alt. Az.
20 Oct 11.7 05:39:05 10° SSW 05:52:34 28° SE 06:03:40 10° E visible
21 Oct 12.1 03:54:57 10° SSE 03:59:19 11° SE 04:03:35 10° ESE visible
21 Oct 11.4 05:55:40 10° SSW 06:10:48 36° SSE 06:22:50 10° E visible
22 Oct 11.9 04:07:29 10° S 04:17:30 18° SE 04:26:56 10° ESE visible
22 Oct 11.1 06:12:46 10° SW 06:29:02 45° SSE 06:41:36 10° E visible
23 Oct 11.7 04:22:47 10° S 04:35:36 25° SE 04:47:26 10° E visible
23 Oct 10.9 06:30:15 10° SW 06:47:18 54° SSE 07:00:07 10° E visible
24 Oct 11.4 04:39:03 10° SSW 04:53:41 33° SE 05:06:57 10° E visible
25 Oct 11.8 02:53:20 10° SSE 03:00:40 14° SE 03:08:07 10° ESE visible
25 Oct 11.1 04:55:55 10° SSW 05:11:48 41° SE 05:25:57 10° E visible
26 Oct 11.7 03:07:55 11° S 03:18:36 21° SE 03:29:51 10° E visible
26 Oct 10.9 05:13:12 10° SW 05:29:56 51° SSE 05:44:39 10° E visible
27 Oct 11.4 03:26:08 16° S 03:36:30 28° SE 03:49:57 10° E visible
27 Oct 10.7 05:30:49 10° SW 05:48:09 60° SSE 06:03:09 10° ENE visible
28 Oct 11.1 03:44:14 20° S 03:54:25 37° SE 04:09:18 10° E visible
28 Oct 10.6 05:48:42 10° SW 06:06:27 69° SSE 06:21:33 10° ENE visible
29 Oct 11.6 02:00:42 16° SE 02:01:53 16° SE 02:10:29 10° ESE visible
29 Oct 10.9 04:02:12 24° SSW 04:12:24 46° SE 04:28:12 10° E visible
29 Oct 10.5 06:06:50 10° WSW 06:24:49 77° SSE 06:39:54 10° E visible
